THORAD DELTA 1 DEB, 42623

Orbit data source: Space-Track

THORAD DELTA 1 DEB, 42623 is space debris in SSO originally from a launch on Fri, 15 Nov 1974 UTC launched from the Air Force Western Test Range (AFWTR). Debris objects in space refer to the collection of defunct objects orbiting the Earth. Examples of debris include non-operational satellites, rocket bodies, and fragments generated from explosions, collisions, or faulty payload assembly.

Loading next visibility...
Identifier
42623, 1974-089GQ
Orbit
SSO
Country
Flag of USUS
Related business
Manufacturer
Unknown
Mission
Spacecraft
Bus & Motor
Unknown
Mass
Unknown
Launch date (UTC)
1974-11-15 (51 years ago)
Launch vehicle
Unknown
Launch site
Air Force Western Test Range (AFWTR)
Object type
Payload
Rocket body
Debris
Shape & HBR
Unknown shape, 0.1 m
Radar Cross Section
Small (<0.1 m²)

Expand to show TLE details & history
Last TLE update: 3 days ago

TLE from 3 days ago
0 THORAD DELTA 1 DEB
1 42623U 74089GQ  26069.85913635 -.00000037  00000-0  66351-4 0  9994
2 42623 102.2251  82.1562 0071846   2.9959 357.1523 12.43796842220035
Epoch: 2026-03-10T20:37Z
TLE epoch observation values (Epoch: 2026-03-10T20:37:09.380Z)
Latitude
-0.00007°
Longitude
-35.66455°
Altitude
1,436.623 km
Speed
7.169 km/s
True Right ascension
05h 28m 37s
True Declination
0° 00' 00"
Sunlit
Object was in daylight at epoch
Visualization orbit readout
Latitude
Unknown
Longitude
Unknown
Altitude
Unknown
Speed
Unknown
Apparent Right ascension
Unknown
Apparent Declination
Unknown
Sunlit
N/A
Visualization observer readout
Local Sidereal Time
10:35:22
Azimuth
Unknown
Elevation
Unknown
Doppler factor
Unknown
Orbital elements
Apogee altitude
1,544.648 km
Perigee altitude
1,431.616 km
Semi-major axis
7,866.269 km
Eccentricity
0.00718
Inclination
102.2251°
RAAN
82.1562°
Arg. of periapsis
2.9959°
True anomaly
357.11103°
Mean anomaly
357.1523°
Eccentric anomaly
357.1317°
Mean motion
3.11093 °/min
Orbital period
115.72 mins
BSTAR
0.000066351
Loading maneuver chart data...
Computing Atmospheric mass density...

Documentation

Showing up to 5 results
|